Williston, ND

1:52 PM CDT on September 24, 2017 (GMT -0500)
Sloulin International

Weather History for KISN - November, 2013

Change the Weather History Date:

Thursday, November 14, 2013

  Actual Average Record
Temperature  
Mean Temperature 34 °F 28 °F  
Max Temperature 48 °F 39 °F 67 °F (1899)
Min Temperature 19 °F 17 °F -15 °F (2014)
Degree Days  
Heating Degree Days 31 37  
Month to date heating degree days 461 466  
Since 1 July heating degree days 1370 1493  
Cooling Degree Days 0 0  
Month to date cooling degree days 0 0  
Year to date cooling degree days 405 456  
Moisture  
Dew Point 27 °F    
Average Humidity 73    
Maximum Humidity 92    
Minimum Humidity 53    
Precipitation  
Precipitation 0.00 in 0.02 in 0.26 in (1955)
Month to date precipitation 0.12 0.35  
Year to date precipitation 19.98 13.45  
Sea Level Pressure  
Sea Level Pressure 29.87 in    
Wind  
Wind Speed 6 mph (West)    
Max Wind Speed 20 mph    
Max Gust Speed 24 mph    
Visibility 10 miles    
Events      
T = Trace of Precipitation, MM = Missing Value Source: NWS Daily Summary

Daily Weather History Graph

Daily Weather History Graph

Search for Another Location

Airport or City:

Trip Planner

Search our weather history database for the weather conditions in past years. The results will help you decide how hot, cold, wet, or windy it might be!

Date:

Astronomy

Nov. 14, 2013 Rise Set
Actual Time 8:00 AM CST 5:17 PM CST
Civil Twilight 7:26 AM CST 5:51 PM CST
Nautical Twilight 6:48 AM CST 6:28 PM CST
Astronomical Twilight 6:11 AM CST 7:05 PM CST
Moon 3:50 PM CST (11/14) 4:45 AM CST (11/14)
Length of Visible Light 10h 24m
Length of Day
9h 16m
Waxing Gibbous, 92% of the Moon is Illuminated
Nov 14
Waxing Gibbous
Nov 17
Full
Nov 25
Last Quarter
Dec 2
New
Dec 9
First Quarter

Hourly Weather History & Observations

Time (CST) Temp. Windchill Dew Point Humidity Pressure Visibility Wind Dir Wind Speed Gust Speed Precip Events Conditions
12:52 AM 36.0 °F 29.0 °F 32.0 °F 86% 29.93 in 10.0 mi NW 9.2 mph - N/A   Clear
1:52 AM 34.0 °F 29.8 °F 30.0 °F 85% 29.93 in 10.0 mi SSW 4.6 mph - N/A   Scattered Clouds
2:52 AM 32.0 °F 27.5 °F 28.9 °F 88% 29.94 in 10.0 mi SSW 4.6 mph - N/A   Mostly Cloudy
3:52 AM 33.1 °F 30.0 °F 30.0 °F 89% 29.94 in 10.0 mi South 3.5 mph - N/A   Clear
4:52 AM 32.0 °F - 28.9 °F 88% 29.94 in 10.0 mi Calm Calm - N/A   Clear
5:52 AM 28.9 °F - 27.0 °F 92% 29.96 in 10.0 mi Calm Calm - N/A   Clear
6:52 AM 26.1 °F - 25.0 °F 96% 29.95 in 10.0 mi Calm Calm - N/A   Clear
7:52 AM 30.9 °F 26.2 °F 28.0 °F 89% 29.92 in 10.0 mi South 4.6 mph - N/A   Partly Cloudy
8:52 AM 33.1 °F 28.7 °F 28.9 °F 85% 29.91 in 10.0 mi SE 4.6 mph - N/A   Mostly Cloudy
9:52 AM 36.0 °F 28.0 °F 30.9 °F 82% 29.90 in 10.0 mi West 11.5 mph 16.1 mph N/A   Overcast
10:52 AM 37.9 °F 32.1 °F 30.9 °F 76% 29.87 in 10.0 mi SW 8.1 mph - N/A   Overcast
11:52 AM 43.0 °F 36.8 °F 30.9 °F 62% 29.86 in 10.0 mi WNW 11.5 mph - N/A   Overcast
12:52 PM 46.9 °F - 30.9 °F 54% 29.84 in 10.0 mi WNW 12.7 mph 21.9 mph N/A   Overcast
1:52 PM 46.0 °F 40.2 °F 32.0 °F 58% 29.83 in 10.0 mi WNW 12.7 mph - N/A   Overcast
2:52 PM 46.9 °F - 30.9 °F 54% 29.82 in 10.0 mi WNW 16.1 mph 20.7 mph N/A   Clear
3:52 PM 46.9 °F - 30.0 °F 52% 29.82 in 10.0 mi WNW 11.5 mph - N/A   Clear
4:52 PM 42.1 °F 39.2 °F 28.9 °F 60% 29.82 in 10.0 mi WNW 4.6 mph - N/A   Clear
5:52 PM 30.0 °F - 24.1 °F 79% 29.83 in 10.0 mi Calm Calm - N/A   Clear
6:52 PM 30.9 °F 22.8 °F 27.0 °F 85% 29.84 in 10.0 mi North 9.2 mph - N/A   Clear
7:52 PM 28.0 °F - 26.1 °F 92% 29.84 in 10.0 mi Calm Calm - N/A   Clear
8:52 PM 21.0 °F - 18.0 °F 88% 29.83 in 10.0 mi Calm Calm - N/A   Clear
9:52 PM 23.0 °F 18.4 °F 19.9 °F 88% 29.81 in 10.0 mi NNE 3.5 mph - N/A   Mostly Cloudy
10:52 PM 28.0 °F 24.2 °F 25.0 °F 88% 29.78 in 10.0 mi South 3.5 mph - N/A   Clear
11:52 PM 19.9 °F - 17.1 °F 89% 29.77 in 8.0 mi Calm Calm - N/A   Clear